BEL8YE EDDB-EBBR

Flight info

Callsign BEL8YE
Flight time 1h 2m
Altitude 34000
Route LOGDO DCT MAG Z92 ABGUS DCT TOLTA DCT ABAMI Z717 NEREL T855 BATTY
Aircraft A319/M-DE3FGIJ1LORVWY/HB1

Departure

Time 2026-05-06 05:12
Airport Berlin Brandenburg Airport (EDDB)

Arrival

Time 2026-05-06 06:14
Airport Brussels Airport (EBBR)
Time Latitude Longitude Altitude Speed Heading
2026-05-06 04:31 52.36136 13.50744 155 ft 0 kts 69°
2026-05-06 04:32 52.36138 13.50753 156 ft 0 kts 69°
2026-05-06 05:02 52.36133 13.50730 155 ft 4 kts 70°
2026-05-06 05:02 52.36124 13.50688 155 ft 4 kts 76°
2026-05-06 05:02 52.36120 13.50645 155 ft 4 kts 90°
2026-05-06 05:02 52.36124 13.50606 155 ft 4 kts 136°
2026-05-06 05:03 52.36134 13.50596 155 ft 1 kts 159°
2026-05-06 05:03 52.36135 13.50595 155 ft 0 kts 159°
2026-05-06 05:06 52.36134 13.50596 155 ft 1 kts 159°
2026-05-06 05:07 52.36082 13.50629 155 ft 15 kts 159°
2026-05-06 05:07 52.35946 13.50713 155 ft 25 kts 159°
2026-05-06 05:07 52.35798 13.50808 155 ft 21 kts 158°
2026-05-06 05:07 52.35700 13.50719 155 ft 17 kts 246°
2026-05-06 05:08 52.35648 13.50501 155 ft 26 kts 248°
2026-05-06 05:08 52.35584 13.50241 154 ft 23 kts 248°
2026-05-06 05:08 52.35532 13.50019 154 ft 19 kts 250°
2026-05-06 05:08 52.35491 13.49836 154 ft 15 kts 249°
2026-05-06 05:09 52.35453 13.49690 154 ft 14 kts 246°
2026-05-06 05:09 52.35414 13.49538 154 ft 13 kts 250°
2026-05-06 05:09 52.35380 13.49385 154 ft 20 kts 250°
2026-05-06 05:09 52.35320 13.49116 154 ft 25 kts 250°
2026-05-06 05:10 52.35261 13.48868 154 ft 22 kts 249°
2026-05-06 05:10 52.35211 13.48657 154 ft 18 kts 249°
2026-05-06 05:10 52.35141 13.48532 154 ft 14 kts 180°
2026-05-06 05:10 52.35099 13.48638 154 ft 13 kts 97°
2026-05-06 05:11 52.35079 13.48855 154 ft 26 kts 99°
2026-05-06 05:11 52.35105 13.49215 154 ft 51 kts 69°
2026-05-06 05:11 52.35325 13.50139 155 ft 120 kts 69°
2026-05-06 05:11 52.35691 13.51670 349 ft 155 kts 67°
2026-05-06 05:12 52.36023 13.53335 1085 ft 154 kts 78°
2026-05-06 05:12 52.36133 13.55077 1854 ft 155 kts 85°
2026-05-06 05:12 52.36234 13.56928 2355 ft 174 kts 86°
2026-05-06 05:12 52.36350 13.59021 2747 ft 197 kts 86°
2026-05-06 05:13 52.36482 13.61375 3290 ft 215 kts 87°
2026-05-06 05:13 52.36626 13.63837 4224 ft 220 kts 87°
2026-05-06 05:13 52.36777 13.66366 5099 ft 227 kts 86°
2026-05-06 05:13 52.36938 13.68967 6020 ft 232 kts 86°
2026-05-06 05:14 52.36932 13.71612 6885 ft 234 kts 103°
2026-05-06 05:14 52.36277 13.74031 7768 ft 235 kts 128°
2026-05-06 05:14 52.35012 13.75738 8638 ft 241 kts 154°
2026-05-06 05:14 52.33370 13.76320 9544 ft 247 kts 180°
2026-05-06 05:15 52.31665 13.75853 10362 ft 255 kts 195°
2026-05-06 05:15 52.29903 13.74903 10787 ft 277 kts 197°
2026-05-06 05:15 52.28045 13.73866 11489 ft 286 kts 200°
2026-05-06 05:15 52.26292 13.72290 12360 ft 291 kts 216°
2026-05-06 05:16 52.24836 13.69943 13114 ft 303 kts 231°
2026-05-06 05:16 52.23783 13.66815 13389 ft 329 kts 247°
2026-05-06 05:16 52.22979 13.63244 13914 ft 340 kts 248°
2026-05-06 05:16 52.22157 13.59605 14609 ft 344 kts 248°
2026-05-06 05:17 52.21324 13.55961 15456 ft 343 kts 248°
2026-05-06 05:17 52.20493 13.52354 16219 ft 345 kts 247°
2026-05-06 05:17 52.19642 13.48665 16938 ft 350 kts 248°
2026-05-06 05:17 52.19042 13.44787 17643 ft 357 kts 259°
2026-05-06 05:18 52.18807 13.40729 18323 ft 363 kts 263°
2026-05-06 05:18 52.18600 13.36594 18898 ft 369 kts 263°
2026-05-06 05:18 52.18388 13.32406 19498 ft 373 kts 263°
2026-05-06 05:18 52.18169 13.28183 20117 ft 377 kts 263°
2026-05-06 05:19 52.17940 13.23910 20715 ft 380 kts 263°
2026-05-06 05:19 52.17707 13.19590 21309 ft 384 kts 263°
2026-05-06 05:19 52.17472 13.15236 21903 ft 388 kts 263°
2026-05-06 05:19 52.17234 13.10837 22491 ft 392 kts 263°
2026-05-06 05:20 52.16991 13.06397 23078 ft 395 kts 263°
2026-05-06 05:20 52.16744 13.01924 23574 ft 399 kts 263°
2026-05-06 05:20 52.16496 12.97407 24048 ft 402 kts 263°
2026-05-06 05:20 52.16031 12.92911 24520 ft 404 kts 255°
2026-05-06 05:21 52.15405 12.88431 24986 ft 407 kts 256°
2026-05-06 05:21 52.14768 12.83918 25391 ft 412 kts 256°
2026-05-06 05:21 52.14121 12.79355 25820 ft 415 kts 255°
2026-05-06 05:21 52.13464 12.74754 26241 ft 419 kts 256°
2026-05-06 05:22 52.12800 12.70113 26658 ft 423 kts 256°
2026-05-06 05:22 52.12131 12.65437 27123 ft 426 kts 256°
2026-05-06 05:22 52.11457 12.60720 27538 ft 430 kts 255°
2026-05-06 05:22 52.10775 12.55960 27944 ft 434 kts 256°
2026-05-06 05:23 52.10089 12.51177 28386 ft 437 kts 256°
2026-05-06 05:23 52.09394 12.46355 28885 ft 437 kts 257°
2026-05-06 05:23 52.07989 12.36690 29741 ft 442 kts 257°
2026-05-06 05:24 52.07278 12.31817 30045 ft 446 kts 256°
2026-05-06 05:24 52.06555 12.26884 30286 ft 451 kts 256°
2026-05-06 05:24 52.05825 12.21907 30572 ft 454 kts 256°
2026-05-06 05:24 52.05089 12.16902 30908 ft 456 kts 256°
2026-05-06 05:25 52.04349 12.11886 31264 ft 458 kts 256°
2026-05-06 05:25 52.03602 12.06854 31605 ft 459 kts 255°
2026-05-06 05:25 52.02865 12.01893 32071 ft 457 kts 255°
2026-05-06 05:25 52.02119 11.96880 32521 ft 456 kts 255°
2026-05-06 05:26 52.01375 11.91885 32982 ft 455 kts 254°
2026-05-06 05:26 52.00628 11.86892 33435 ft 455 kts 254°
2026-05-06 05:26 51.99879 11.81903 33718 ft 455 kts 253°
2026-05-06 05:26 51.99126 11.76968 33772 ft 446 kts 253°
2026-05-06 05:27 51.97529 11.67388 33776 ft 437 kts 251°
2026-05-06 05:27 51.95862 11.57935 33779 ft 435 kts 251°
2026-05-06 05:28 51.94213 11.48519 33781 ft 433 kts 251°
2026-05-06 05:28 51.92591 11.39129 33785 ft 432 kts 252°
2026-05-06 05:29 51.90967 11.29748 33782 ft 432 kts 251°
2026-05-06 05:29 51.89339 11.20393 33773 ft 431 kts 251°
2026-05-06 05:30 51.87712 11.11065 33776 ft 430 kts 251°
2026-05-06 05:30 51.86302 11.01654 33773 ft 432 kts 257°
2026-05-06 05:31 51.85254 10.92096 33771 ft 431 kts 257°
2026-05-06 05:31 51.84191 10.82619 33763 ft 431 kts 257°
2026-05-06 05:32 51.83118 10.73092 33769 ft 431 kts 256°
2026-05-06 05:32 51.82040 10.63543 33749 ft 432 kts 256°
2026-05-06 05:33 51.80945 10.53974 33747 ft 433 kts 256°
2026-05-06 05:33 51.79845 10.44402 33736 ft 433 kts 256°
2026-05-06 05:34 51.78740 10.34839 33746 ft 434 kts 256°
2026-05-06 05:34 51.77816 10.26875 33741 ft 434 kts 256°
2026-05-06 05:35 51.76699 10.17306 33740 ft 434 kts 256°
2026-05-06 05:35 51.75569 10.07740 33729 ft 434 kts 256°
2026-05-06 05:36 51.74419 9.98163 33732 ft 435 kts 256°
2026-05-06 05:36 51.73270 9.88571 33737 ft 436 kts 256°
2026-05-06 05:37 51.72120 9.78971 33734 ft 436 kts 256°
2026-05-06 05:37 51.70951 9.69384 33744 ft 436 kts 255°
2026-05-06 05:38 51.69770 9.59783 33729 ft 437 kts 255°
2026-05-06 05:38 51.68579 9.50165 33728 ft 438 kts 256°
2026-05-06 05:39 51.67486 9.40492 33733 ft 439 kts 257°
2026-05-06 05:39 51.66484 9.30857 33740 ft 439 kts 258°
2026-05-06 05:40 51.65454 9.21176 33756 ft 438 kts 258°
2026-05-06 05:40 51.64387 9.11526 33757 ft 437 kts 257°
2026-05-06 05:41 51.63308 9.01899 33759 ft 437 kts 257°
2026-05-06 05:41 51.62230 8.92289 33755 ft 436 kts 257°
2026-05-06 05:42 51.61151 8.82692 33760 ft 436 kts 257°
2026-05-06 05:42 51.60059 8.73093 33762 ft 436 kts 257°
2026-05-06 05:43 51.58953 8.63508 33756 ft 436 kts 257°
2026-05-06 05:43 51.57833 8.53916 33752 ft 436 kts 257°
2026-05-06 05:44 51.56718 8.44327 33752 ft 437 kts 257°
2026-05-06 05:44 51.55598 8.34736 33755 ft 437 kts 257°
2026-05-06 05:45 51.54466 8.25207 33767 ft 437 kts 257°
2026-05-06 05:45 51.53318 8.15565 33773 ft 437 kts 257°
2026-05-06 05:46 51.52170 8.05985 33785 ft 436 kts 257°
2026-05-06 05:46 51.51024 7.96500 33792 ft 435 kts 257°
2026-05-06 05:47 51.49864 7.86972 33798 ft 434 kts 257°
2026-05-06 05:47 51.48700 7.77485 33793 ft 433 kts 257°
2026-05-06 05:48 51.47531 7.68004 33790 ft 433 kts 257°
2026-05-06 05:48 51.46345 7.58527 33781 ft 433 kts 257°
2026-05-06 05:49 51.45159 7.49058 33773 ft 433 kts 257°
2026-05-06 05:49 51.43962 7.39589 33773 ft 433 kts 257°
2026-05-06 05:50 51.42564 7.30289 33768 ft 431 kts 247°
2026-05-06 05:50 51.39650 7.21936 33762 ft 427 kts 231°
2026-05-06 05:51 51.36123 7.14370 33779 ft 426 kts 231°
2026-05-06 05:51 51.32588 7.06768 33777 ft 426 kts 231°
2026-05-06 05:52 51.29038 6.99180 33780 ft 426 kts 231°
2026-05-06 05:52 51.25478 6.91624 33775 ft 426 kts 231°
2026-05-06 05:53 51.23691 6.87839 33526 ft 427 kts 231°
2026-05-06 05:53 51.21908 6.84060 33173 ft 424 kts 231°
2026-05-06 05:53 51.20142 6.80309 32592 ft 421 kts 231°
2026-05-06 05:53 51.18391 6.76594 32022 ft 418 kts 231°
2026-05-06 05:54 51.16648 6.72912 31467 ft 415 kts 231°
2026-05-06 05:54 51.14911 6.69252 30916 ft 413 kts 231°
2026-05-06 05:54 51.13182 6.65620 30381 ft 411 kts 231°
2026-05-06 05:54 51.11459 6.62005 29842 ft 409 kts 231°
2026-05-06 05:55 51.09744 6.58409 29258 ft 406 kts 231°
2026-05-06 05:55 51.07930 6.55014 28757 ft 401 kts 224°
2026-05-06 05:55 51.05959 6.51905 28229 ft 398 kts 223°
2026-05-06 05:55 51.04003 6.48818 27714 ft 395 kts 224°
2026-05-06 05:56 51.02064 6.45750 27209 ft 392 kts 224°
2026-05-06 05:56 51.00135 6.42696 26716 ft 390 kts 224°
2026-05-06 05:56 50.98222 6.39671 26237 ft 388 kts 224°
2026-05-06 05:56 50.96311 6.36653 25760 ft 386 kts 224°
2026-05-06 05:57 50.94415 6.33662 25301 ft 384 kts 224°
2026-05-06 05:57 50.92550 6.30732 24856 ft 381 kts 224°
2026-05-06 05:57 50.90649 6.27750 24400 ft 379 kts 224°
2026-05-06 05:57 50.88804 6.24861 23954 ft 376 kts 224°
2026-05-06 05:58 50.86922 6.21924 23500 ft 374 kts 224°
2026-05-06 05:58 50.85073 6.19037 22997 ft 372 kts 224°
2026-05-06 05:58 50.83267 6.16213 22542 ft 368 kts 224°
2026-05-06 05:58 50.81434 6.13348 22084 ft 364 kts 224°
2026-05-06 05:59 50.79640 6.10552 21623 ft 361 kts 224°
2026-05-06 05:59 50.77884 6.07820 21181 ft 358 kts 225°
2026-05-06 05:59 50.76092 6.05036 20706 ft 355 kts 225°
2026-05-06 05:59 50.74377 6.02323 20240 ft 353 kts 227°
2026-05-06 06:00 50.72730 5.99469 19758 ft 351 kts 229°
2026-05-06 06:00 50.71144 5.96550 19284 ft 349 kts 229°
2026-05-06 06:00 50.69593 5.93624 18805 ft 347 kts 230°
2026-05-06 06:00 50.68087 5.90658 18324 ft 346 kts 236°
2026-05-06 06:01 50.67035 5.87256 17824 ft 346 kts 251°
2026-05-06 06:01 50.66609 5.83536 17345 ft 345 kts 267°
2026-05-06 06:01 50.66835 5.79801 16903 ft 343 kts 282°
2026-05-06 06:01 50.67681 5.76306 16466 ft 342 kts 295°
2026-05-06 06:02 50.68750 5.72978 16025 ft 339 kts 295°
2026-05-06 06:02 50.69814 5.69675 15591 ft 336 kts 295°
2026-05-06 06:02 50.70870 5.66393 15157 ft 334 kts 295°
2026-05-06 06:02 50.71920 5.63127 14726 ft 334 kts 295°
2026-05-06 06:03 50.72970 5.59857 14293 ft 334 kts 295°
2026-05-06 06:03 50.74017 5.56586 13862 ft 334 kts 295°
2026-05-06 06:03 50.75061 5.53312 13389 ft 334 kts 297°
2026-05-06 06:03 50.76104 5.50044 12939 ft 332 kts 297°
2026-05-06 06:04 50.77137 5.46793 12478 ft 330 kts 297°
2026-05-06 06:04 50.78159 5.43557 12054 ft 329 kts 297°
2026-05-06 06:04 50.79182 5.40328 11590 ft 327 kts 297°
2026-05-06 06:04 50.80198 5.37131 11135 ft 323 kts 298°
2026-05-06 06:05 50.81199 5.33974 10699 ft 320 kts 298°
2026-05-06 06:05 50.82191 5.30837 10253 ft 318 kts 298°
2026-05-06 06:05 50.83171 5.27742 9982 ft 309 kts 298°
2026-05-06 06:05 50.84109 5.24764 9858 ft 296 kts 298°
2026-05-06 06:06 50.85009 5.21891 9648 ft 288 kts 298°
2026-05-06 06:06 50.85897 5.19055 9202 ft 287 kts 299°
2026-05-06 06:06 50.86782 5.16245 8803 ft 284 kts 298°
2026-05-06 06:06 50.87680 5.13442 8351 ft 283 kts 302°
2026-05-06 06:07 50.88732 5.10812 7870 ft 283 kts 305°
2026-05-06 06:07 50.89771 5.08247 7530 ft 278 kts 305°
2026-05-06 06:07 50.90823 5.05636 7092 ft 277 kts 305°
2026-05-06 06:07 50.91853 5.03061 6662 ft 276 kts 305°
2026-05-06 06:08 50.92864 5.00532 6252 ft 274 kts 305°
2026-05-06 06:08 50.93882 4.97983 5818 ft 273 kts 305°
2026-05-06 06:08 50.94894 4.95451 5380 ft 271 kts 305°
2026-05-06 06:08 50.95884 4.92973 5178 ft 259 kts 305°
2026-05-06 06:09 50.96827 4.90611 4957 ft 251 kts 305°
2026-05-06 06:09 50.97500 4.88093 4713 ft 247 kts 284°
2026-05-06 06:09 50.97485 4.85399 4479 ft 245 kts 259°
2026-05-06 06:09 50.96930 4.82862 4223 ft 241 kts 250°
2026-05-06 06:10 50.96323 4.80398 3921 ft 239 kts 252°
2026-05-06 06:10 50.95754 4.77945 3600 ft 233 kts 252°
2026-05-06 06:10 50.95211 4.75559 3287 ft 227 kts 252°
2026-05-06 06:10 50.94684 4.73242 2988 ft 220 kts 252°
2026-05-06 06:11 50.94172 4.70997 2697 ft 214 kts 252°
2026-05-06 06:11 50.93677 4.68833 2403 ft 205 kts 253°
2026-05-06 06:11 50.93198 4.66736 2145 ft 199 kts 254°
2026-05-06 06:11 50.92735 4.64717 1863 ft 190 kts 254°
2026-05-06 06:12 50.92295 4.62796 1619 ft 180 kts 256°
2026-05-06 06:12 50.91886 4.61019 1379 ft 164 kts 255°
2026-05-06 06:12 50.91509 4.59372 1154 ft 154 kts 255°
2026-05-06 06:12 50.91152 4.57818 945 ft 149 kts 254°
2026-05-06 06:13 50.90803 4.56294 739 ft 145 kts 253°
2026-05-06 06:13 50.90462 4.54809 552 ft 141 kts 254°
2026-05-06 06:13 50.90128 4.53360 360 ft 140 kts 252°
2026-05-06 06:13 50.89803 4.51952 204 ft 129 kts 252°
2026-05-06 06:14 50.89536 4.50771 175 ft 94 kts 250°
2026-05-06 06:14 50.89395 4.50154 176 ft 70 kts 250°
2026-05-06 06:14 50.89330 4.49872 177 ft 61 kts 250°
2026-05-06 06:14 50.89224 4.49364 176 ft 30 kts 271°
2026-05-06 06:15 50.89334 4.49116 167 ft 23 kts 326°
2026-05-06 06:15 50.89490 4.49148 160 ft 24 kts 13°
2026-05-06 06:15 50.89663 4.49160 151 ft 27 kts 355°
2026-05-06 06:15 50.89859 4.49223 140 ft 31 kts 12°
2026-05-06 06:16 50.90078 4.49313 131 ft 33 kts 15°
2026-05-06 06:16 50.90289 4.49402 126 ft 25 kts 14°
2026-05-06 06:16 50.90418 4.49385 123 ft 19 kts 278°
2026-05-06 06:16 50.90371 4.49217 123 ft 17 kts 245°
2026-05-06 06:17 50.90321 4.49044 121 ft 18 kts 246°
2026-05-06 06:17 50.90269 4.48860 123 ft 19 kts 245°
2026-05-06 06:17 50.90212 4.48666 123 ft 20 kts 245°
2026-05-06 06:17 50.90179 4.48508 123 ft 9 kts 298°
2026-05-06 06:18 50.90240 4.48467 118 ft 6 kts 334°
2026-05-06 06:18 50.90247 4.48461 119 ft 0 kts 335°